Location: Newark
(35.8967°N, 14.4625°E)
Time: 08:46:07
(UTC+00:00)

Envisat - Pass Details

Date: 25 October 2019
Orbit: 764 x 766 km, 98.1° (Epoch: 19 November)

Event Time Altitude Azimuth Distance (km) Brightness Sun altitude
Rises 17:40:29 0° 183° (S) 3,217 6.3 -18.0°
Reaches altitude 10° 17:42:53 10° 191° (S) 2,295 5.6 -18.5°
Maximum altitude 17:47:40 42° 261° (W) 1,080 4.3 -19.5°
Drops below altitude 10° 17:52:29 10° 333° (NNW) 2,308 5.8 -20.5°
Sets 17:54:55 0° 340° (NNW) 3,238 6.5 -20.9°
